SAUDISAT 5B (43833 NORAD) Tracking and Keplerian Element Data

This shows tracking and keplerian element data for the satellite.

Feedback or suggestion? Click here.




ElementValue
Catalog43833
NameSAUDISAT 5B
Epoch Orbit3289
Epoch Day194.4365984
Epoch Year2019
RAAN269.9303
Inclination97.6036
Eccentricity0.0014063
Argument of Perigee247.1771
Mean Anonmoly211.9863
Mean Motion15.08335494
Decay Rate1.58E-06
L11 43833U 18102C 19194.43659840 .00000158 00000-0 14251-4 0 9997
L22 43833 97.6036 269.9303 0014063 247.1771 211.9863 15.08335494 32893

Live tracking and technical data element details for SAUDISAT 5B (NORAD 43833). SAUDISAT 5B can be tracked NOW for your location showing map with azimuth and elevation plus other details from your city location.

Track the satellite on the map from your city or location and see movement details for azimuth, elevation, latitude, longitude, range, height, and movement on the map or in text.







IsCatalogInMostPopularTable: catalog: 43833, numindb: 78
Update: records affected: 1



GetName: 43833 SAUDISAT 5B

Hit Count: updated at: Tue, 16 Jul 2019 14:27:41 GMT